This is the latest recevied weather packets stored in our database for station/object KD5NDU-15. If no packets are shown the sender has not sent any weather packets the latest 10 day(s).
| Time | Temp. | Humidity | Pressure | Rain* | Wind** | Luminosity | Snow |
|---|---|---|---|---|---|---|---|
| 1778089910 | 16.67° C | 95% | 1010.4 hPa | 0 mm | - | 179 W/m² | - |
| 1778089608 | 16.67° C | 97% | 1010.6 hPa | 0 mm | - | 174 W/m² | - |
| 1778089308 | 16.11° C | 96% | 1010.5 hPa | 0 mm | - | 206 W/m² | - |
| 1778089012 | 16.11° C | 96% | 1010.7 hPa | 0 mm | - | 195 W/m² | - |
| 1778088708 | 16.11° C | 96% | 1010.8 hPa | 0 mm | - | 199 W/m² | - |
| 1778088408 | 16.11° C | 96% | 1010.8 hPa | 0 mm | - | 169 W/m² | - |
| 1778088108 | 16.11° C | 96% | 1010.8 hPa | 0 mm | - | 144 W/m² | - |
| 1778087812 | 16.11° C | 96% | 1010.9 hPa | 0 mm | - | 197 W/m² | - |
| 1778087512 | 16.11° C | 96% | 1010.7 hPa | 0 mm | - | 225 W/m² | - |
| 1778087208 | 16.11° C | 96% | 1010.6 hPa | 0 mm | - | 181 W/m² | - |
| 1778086908 | 16.67° C | 96% | 1010.5 hPa | 0 mm | - | 148 W/m² | - |
| 1778086608 | 16.67° C | 96% | 1010.5 hPa | 0 mm | - | 160 W/m² | - |
| 1778086308 | 16.67° C | 96% | 1010.5 hPa | 0 mm | - | 178 W/m² | - |
| 1778086008 | 16.67° C | 95% | 1010.5 hPa | 0 mm | - | 135 W/m² | - |
| 1778085735 | 17.22° C | 95% | 1010.4 hPa | 0 mm | - | 123 W/m² | - |
| 1778085410 | 17.78° C | 96% | 1010.3 hPa | 0 mm | - | 144 W/m² | - |
| 1778085108 | 17.78° C | 96% | 1010.3 hPa | 0 mm | - | 130 W/m² | - |
| 1778084808 | 17.78° C | 97% | 1010.4 hPa | 0 mm | - | 113 W/m² | - |
| 1778084508 | 18.33° C | 97% | 1010.1 hPa | 0 mm | - | 135 W/m² | - |
| 1778084208 | 18.33° C | 97% | 1010 hPa | 0 mm | - | 130 W/m² | - |
| 1778083918 | 18.33° C | 97% | 1009.9 hPa | 0 mm | - | 134 W/m² | - |
| 1778083608 | 18.33° C | 97% | 1009.9 hPa | 0 mm | - | 116 W/m² | - |
| 1778083308 | 18.33° C | 97% | 1009.9 hPa | 0 mm | - | 81 W/m² | - |
| 1778083012 | 18.33° C | 97% | 1009.7 hPa | 0 mm | - | 98 W/m² | - |
| 1778082710 | 18.33° C | 97% | 1009.8 hPa | 0 mm | - | 105 W/m² | - |
* Rain latest hour (hover to see other rain measurements)
** Current wind speed in m/s (hover to see current wind gust speed)